Year,Month,Day,Hour,Minute,Value (Times are PST for barometer in hPa)
2016,03,13,00,00,1001.80
2016,03,13,00,01,1001.76
2016,03,13,00,02,1001.76
2016,03,13,00,03,1001.73
2016,03,13,00,04,1001.69
2016,03,13,00,05,1001.66
2016,03,13,00,06,1001.66
2016,03,13,00,07,1001.56
2016,03,13,00,08,1001.56
2016,03,13,00,09,1001.52
2016,03,13,00,10,1001.56
2016,03,13,00,11,1001.56
2016,03,13,00,12,1001.52
2016,03,13,00,13,1001.52
2016,03,13,00,14,1001.49
2016,03,13,00,15,1001.49
2016,03,13,00,16,1001.46
2016,03,13,00,17,1001.42
2016,03,13,00,18,1001.42
2016,03,13,00,19,1001.42
2016,03,13,00,20,1001.42
2016,03,13,00,21,1001.46
2016,03,13,00,22,1001.42
2016,03,13,00,23,1001.42
2016,03,13,00,24,1001.46
2016,03,13,00,25,1001.46
2016,03,13,00,26,1001.46
2016,03,13,00,27,1001.49
2016,03,13,00,28,1001.56
2016,03,13,00,29,1001.59
2016,03,13,00,30,1001.59
2016,03,13,00,31,1001.63
2016,03,13,00,32,1001.59
2016,03,13,00,33,1001.59
2016,03,13,00,34,1001.59
2016,03,13,00,35,1001.59
2016,03,13,00,36,1001.59
2016,03,13,00,37,1001.63
2016,03,13,00,38,1001.59
2016,03,13,00,39,1001.59
2016,03,13,00,40,1001.56
2016,03,13,00,41,1001.56
2016,03,13,00,42,1001.56
2016,03,13,00,43,1001.49
2016,03,13,00,44,1001.49
2016,03,13,00,45,1001.46
2016,03,13,00,46,1001.42
2016,03,13,00,47,1001.39
2016,03,13,00,48,1001.39
2016,03,13,00,49,1001.32
2016,03,13,00,50,1001.29
2016,03,13,00,51,1001.29
2016,03,13,00,52,1001.25
2016,03,13,00,53,1001.29
2016,03,13,00,54,1001.29
2016,03,13,00,55,1001.36
2016,03,13,00,56,1001.32
2016,03,13,00,57,1001.29
2016,03,13,00,58,1001.29
2016,03,13,00,59,1001.32
2016,03,13,01,00,1001.25
2016,03,13,01,01,1001.29
2016,03,13,01,02,1001.25
2016,03,13,01,03,1001.25
2016,03,13,01,04,1001.25
2016,03,13,01,05,1001.22
2016,03,13,01,06,1001.19
2016,03,13,01,07,1001.19
2016,03,13,01,08,1001.22
2016,03,13,01,09,1001.22
2016,03,13,01,10,1001.25
2016,03,13,01,11,1001.25
2016,03,13,01,12,1001.25
2016,03,13,01,13,1001.25
2016,03,13,01,14,1001.29
2016,03,13,01,15,1001.25
2016,03,13,01,16,1001.25
2016,03,13,01,17,1001.22
2016,03,13,01,18,1001.22
2016,03,13,01,19,1001.22
2016,03,13,01,20,1001.25
2016,03,13,01,21,1001.25
2016,03,13,01,22,1001.25
2016,03,13,01,23,1001.22
2016,03,13,01,24,1001.22
2016,03,13,01,25,1001.22
2016,03,13,01,26,1001.22
2016,03,13,01,27,1001.22
2016,03,13,01,28,1001.22
2016,03,13,01,29,1001.15
2016,03,13,01,30,1001.19
2016,03,13,01,31,1001.12
2016,03,13,01,32,1001.08
2016,03,13,01,33,1001.08
2016,03,13,01,34,1001.08
2016,03,13,01,35,1001.08
2016,03,13,01,36,1001.08
2016,03,13,01,37,1001.05
2016,03,13,01,38,1001.08
2016,03,13,01,39,1001.08
2016,03,13,01,40,1001.05
2016,03,13,01,41,1001.08
2016,03,13,01,42,1001.05
2016,03,13,01,43,1001.08
2016,03,13,01,44,1001.05
2016,03,13,01,45,1001.05
2016,03,13,01,46,1001.05
2016,03,13,01,47,1001.02
2016,03,13,01,48,1001.02
2016,03,13,01,49,1000.98
2016,03,13,01,50,1000.95
2016,03,13,01,51,1000.92
2016,03,13,01,52,1000.95
2016,03,13,01,53,1000.88
2016,03,13,01,54,1000.85
2016,03,13,01,55,1000.85
2016,03,13,01,56,1000.88
2016,03,13,01,57,1000.85
2016,03,13,01,58,1000.87
2016,03,13,01,59,1000.78
2016,03,13,03,00,1000.81
2016,03,13,03,01,1000.75
2016,03,13,03,02,1000.71
2016,03,13,03,03,1000.78
2016,03,13,03,04,1000.71
2016,03,13,03,05,1000.68
2016,03,13,03,06,1000.71
2016,03,13,03,07,1000.64
2016,03,13,03,08,1000.64
2016,03,13,03,09,1000.61
2016,03,13,03,10,1000.58
2016,03,13,03,11,1000.58
2016,03,13,03,12,1000.51
2016,03,13,03,13,1000.51
2016,03,13,03,14,1000.51
2016,03,13,03,15,1000.51
2016,03,13,03,16,1000.44
2016,03,13,03,17,1000.44
2016,03,13,03,18,1000.41
2016,03,13,03,19,1000.41
2016,03,13,03,20,1000.34
2016,03,13,03,21,1000.34
2016,03,13,03,22,1000.34
2016,03,13,03,23,1000.31
2016,03,13,03,24,1000.34
2016,03,13,03,25,1000.34
2016,03,13,03,26,1000.31
2016,03,13,03,27,1000.27
2016,03,13,03,28,1000.27
2016,03,13,03,29,1000.31
2016,03,13,03,30,1000.27
2016,03,13,03,31,1000.20
2016,03,13,03,32,1000.24
2016,03,13,03,33,1000.17
2016,03,13,03,34,1000.20
2016,03,13,03,35,1000.17
2016,03,13,03,36,1000.17
2016,03,13,03,37,1000.17
2016,03,13,03,38,1000.10
2016,03,13,03,39,1000.14
2016,03,13,03,40,1000.07
2016,03,13,03,41,1000.03
2016,03,13,03,42,1000.03
2016,03,13,03,43,1000.03
2016,03,13,03,44,1000.03
2016,03,13,03,45,1000.03
2016,03,13,03,46,1000.03
2016,03,13,03,47,1000.03
2016,03,13,03,48,999.93
2016,03,13,03,49,999.90
2016,03,13,03,50,999.90
2016,03,13,03,51,999.90
2016,03,13,03,52,999.87
2016,03,13,03,53,999.90
2016,03,13,03,54,999.87
2016,03,13,03,55,999.87
2016,03,13,03,56,999.80
2016,03,13,03,57,999.76
2016,03,13,03,58,999.76
2016,03,13,03,59,999.70
2016,03,13,04,00,999.70
2016,03,13,04,01,999.70
2016,03,13,04,02,999.70
2016,03,13,04,03,999.66
2016,03,13,04,04,999.63
2016,03,13,04,05,999.63
2016,03,13,04,06,999.63
2016,03,13,04,07,999.63
2016,03,13,04,08,999.66
2016,03,13,04,09,999.66
2016,03,13,04,10,999.66
2016,03,13,04,11,999.63
2016,03,13,04,12,999.59
2016,03,13,04,13,999.59
2016,03,13,04,14,999.59
2016,03,13,04,15,999.63
2016,03,13,04,16,999.59
2016,03,13,04,17,999.63
2016,03,13,04,18,999.56
2016,03,13,04,19,999.56
2016,03,13,04,20,999.49
2016,03,13,04,21,999.56
2016,03,13,04,22,999.49
2016,03,13,04,23,999.49
2016,03,13,04,24,999.53
2016,03,13,04,25,999.49
2016,03,13,04,26,999.49
2016,03,13,04,27,999.49
2016,03,13,04,28,999.46
2016,03,13,04,29,999.49
2016,03,13,04,30,999.43
2016,03,13,04,31,999.46
2016,03,13,04,32,999.43
2016,03,13,04,33,999.46
2016,03,13,04,34,999.46
2016,03,13,04,35,999.43
2016,03,13,04,36,999.46
2016,03,13,04,37,999.46
2016,03,13,04,38,999.46
2016,03,13,04,39,999.46
2016,03,13,04,40,999.39
2016,03,13,04,41,999.39
2016,03,13,04,42,999.36
2016,03,13,04,43,999.36
2016,03,13,04,44,999.27
2016,03,13,04,45,999.36
2016,03,13,04,46,999.32
2016,03,13,04,47,999.22
2016,03,13,04,48,999.26
2016,03,13,04,49,999.22
2016,03,13,04,50,999.19
2016,03,13,04,51,999.22
2016,03,13,04,52,999.19
2016,03,13,04,53,999.19
2016,03,13,04,54,999.12
2016,03,13,04,55,999.12
2016,03,13,04,56,999.09
2016,03,13,04,57,999.05
2016,03,13,04,58,999.05
2016,03,13,04,59,999.05
2016,03,13,05,00,999.05
2016,03,13,05,01,999.02
2016,03,13,05,02,998.99
2016,03,13,05,03,999.05
2016,03,13,05,04,998.99
2016,03,13,05,05,998.95
2016,03,13,05,06,998.92
2016,03,13,05,07,998.95
2016,03,13,05,08,998.99
2016,03,13,05,09,999.02
2016,03,13,05,10,998.98
2016,03,13,05,11,998.85
2016,03,13,05,12,998.91
2016,03,13,05,13,998.82
2016,03,13,05,14,998.85
2016,03,13,05,15,998.88
2016,03,13,05,16,998.85
2016,03,13,05,17,998.85
2016,03,13,05,18,998.82
2016,03,13,05,19,998.82
2016,03,13,05,20,998.82
2016,03,13,05,21,998.78
2016,03,13,05,22,998.77
2016,03,13,05,23,998.65
2016,03,13,05,24,998.74
2016,03,13,05,25,998.65
2016,03,13,05,26,998.70
2016,03,13,05,27,998.58
2016,03,13,05,28,998.65
2016,03,13,05,29,998.61
2016,03,13,05,30,998.58
2016,03,13,05,31,998.54
2016,03,13,05,32,998.54
2016,03,13,05,33,998.54
2016,03,13,05,34,998.51
2016,03,13,05,35,998.53
2016,03,13,05,36,998.45
2016,03,13,05,37,998.54
2016,03,13,05,38,998.48
2016,03,13,05,39,998.41
2016,03,13,05,40,998.41
2016,03,13,05,41,998.44
2016,03,13,05,42,998.41
2016,03,13,05,43,998.44
2016,03,13,05,44,998.38
2016,03,13,05,45,998.44
2016,03,13,05,46,998.41
2016,03,13,05,47,998.44
2016,03,13,05,48,998.43
2016,03,13,05,49,998.24
2016,03,13,05,50,998.28
2016,03,13,05,51,998.41
2016,03,13,05,52,998.31
2016,03,13,05,53,998.24
2016,03,13,05,54,998.24
2016,03,13,05,55,998.27
2016,03,13,05,56,998.17
2016,03,13,05,57,998.21
2016,03,13,05,58,998.17
2016,03,13,05,59,998.21
2016,03,13,06,00,998.27
2016,03,13,06,01,998.33
2016,03,13,06,02,998.21
2016,03,13,06,03,998.14
2016,03,13,06,04,998.17
2016,03,13,06,05,998.17
2016,03,13,06,06,998.17
2016,03,13,06,07,998.17
2016,03,13,06,08,998.17
2016,03,13,06,09,998.17
2016,03,13,06,10,998.14
2016,03,13,06,11,998.10
2016,03,13,06,12,998.14
2016,03,13,06,13,998.14
2016,03,13,06,14,998.16
2016,03,13,06,15,998.07
2016,03,13,06,16,998.04
2016,03,13,06,17,998.04
2016,03,13,06,18,998.07
2016,03,13,06,19,998.07
2016,03,13,06,20,998.04
2016,03,13,06,21,997.97
2016,03,13,06,22,997.90
2016,03,13,06,23,997.90
2016,03,13,06,24,997.99
2016,03,13,06,25,997.83
2016,03,13,06,26,997.87
2016,03,13,06,27,997.87
2016,03,13,06,28,997.94
2016,03,13,06,29,997.83
2016,03,13,06,30,997.83
2016,03,13,06,31,997.80
2016,03,13,06,32,997.77
2016,03,13,06,33,997.73
2016,03,13,06,34,997.73
2016,03,13,06,35,997.70
2016,03,13,06,36,997.72
2016,03,13,06,37,997.60
2016,03,13,06,38,997.56
2016,03,13,06,39,997.50
2016,03,13,06,40,997.50
2016,03,13,06,41,997.46
2016,03,13,06,42,997.46
2016,03,13,06,43,997.46
2016,03,13,06,44,997.43
2016,03,13,06,45,997.43
2016,03,13,06,46,997.36
2016,03,13,06,47,997.29
2016,03,13,06,48,997.33
2016,03,13,06,49,997.36
2016,03,13,06,50,997.33
2016,03,13,06,51,997.29
2016,03,13,06,52,997.26
2016,03,13,06,53,997.33
2016,03,13,06,54,997.33
2016,03,13,06,55,997.33
2016,03,13,06,56,997.26
2016,03,13,06,57,997.19
2016,03,13,06,58,997.16
2016,03,13,06,59,997.21
2016,03,13,07,00,997.09
2016,03,13,07,01,997.05
2016,03,13,07,02,996.95
2016,03,13,07,03,996.98
2016,03,13,07,04,996.85
2016,03,13,07,05,996.82
2016,03,13,07,06,996.75
2016,03,13,07,07,996.78
2016,03,13,07,08,996.75
2016,03,13,07,09,996.72
2016,03,13,07,10,996.72
2016,03,13,07,11,996.68
2016,03,13,07,12,996.65
2016,03,13,07,13,996.68
2016,03,13,07,14,996.65
2016,03,13,07,15,996.61
2016,03,13,07,16,996.58
2016,03,13,07,17,996.55
2016,03,13,07,18,996.51
2016,03,13,07,19,996.51
2016,03,13,07,20,996.45
2016,03,13,07,21,996.45
2016,03,13,07,22,996.28
2016,03,13,07,23,996.31
2016,03,13,07,24,996.34
2016,03,13,07,25,996.28
2016,03,13,07,26,996.28
2016,03,13,07,27,996.27
2016,03,13,07,28,996.14
2016,03,13,07,29,996.17
2016,03,13,07,30,996.17
2016,03,13,07,31,996.14
2016,03,13,07,32,996.07
2016,03,13,07,33,996.04
2016,03,13,07,34,996.07
2016,03,13,07,35,995.97
2016,03,13,07,36,996.04
2016,03,13,07,37,996.04
2016,03,13,07,38,996.04
2016,03,13,07,39,996.04
2016,03,13,07,40,996.01
2016,03,13,07,41,995.94
2016,03,13,07,42,996.01
2016,03,13,07,43,995.90
2016,03,13,07,44,995.94
2016,03,13,07,45,995.87
2016,03,13,07,46,995.80
2016,03,13,07,47,995.80
2016,03,13,07,48,995.70
2016,03,13,07,49,995.70
2016,03,13,07,50,995.60
2016,03,13,07,51,995.60
2016,03,13,07,52,995.53
2016,03,13,07,53,995.56
2016,03,13,07,54,995.60
2016,03,13,07,55,995.53
2016,03,13,07,56,995.56
2016,03,13,07,57,995.50
2016,03,13,07,58,995.46
2016,03,13,07,59,995.36
2016,03,13,08,00,995.36
2016,03,13,08,01,995.28
2016,03,13,08,02,995.12
2016,03,13,08,03,995.08
2016,03,13,08,04,994.92
2016,03,13,08,05,994.99
2016,03,13,08,06,994.96
2016,03,13,08,07,994.99
2016,03,13,08,08,994.99
2016,03,13,08,09,994.89
2016,03,13,08,10,994.82
2016,03,13,08,11,994.82
2016,03,13,08,12,994.79
2016,03,13,08,13,994.79
2016,03,13,08,14,994.78
2016,03,13,08,15,994.65
2016,03,13,08,16,994.62
2016,03,13,08,17,994.58
2016,03,13,08,18,994.65
2016,03,13,08,19,994.58
2016,03,13,08,20,994.65
2016,03,13,08,21,994.55
2016,03,13,08,22,994.48
2016,03,13,08,23,994.45
2016,03,13,08,24,994.41
2016,03,13,08,25,994.38
2016,03,13,08,26,994.35
2016,03,13,08,27,994.28
2016,03,13,08,28,994.28
2016,03,13,08,29,994.31
2016,03,13,08,30,994.24
2016,03,13,08,31,994.23
2016,03,13,08,32,994.14
2016,03,13,08,33,994.14
2016,03,13,08,34,994.07
2016,03,13,08,35,994.04
2016,03,13,08,36,994.14
2016,03,13,08,37,994.07
2016,03,13,08,38,994.14
2016,03,13,08,39,994.07
2016,03,13,08,40,994.04
2016,03,13,08,41,993.97
2016,03,13,08,42,994.01
2016,03,13,08,43,993.97
2016,03,13,08,44,993.91
2016,03,13,08,45,993.93
2016,03,13,08,46,993.84
2016,03,13,08,47,993.94
2016,03,13,08,48,993.77
2016,03,13,08,49,993.84
2016,03,13,08,50,993.91
2016,03,13,08,51,993.70
2016,03,13,08,52,993.67
2016,03,13,08,53,993.63
2016,03,13,08,54,993.70
2016,03,13,08,55,993.63
2016,03,13,08,56,993.60
2016,03,13,08,57,993.57
2016,03,13,08,58,993.57
2016,03,13,08,59,993.50
2016,03,13,09,00,993.47
2016,03,13,09,01,993.46
2016,03,13,09,02,993.30
2016,03,13,09,03,993.30
2016,03,13,09,04,993.23
2016,03,13,09,05,993.26
2016,03,13,09,06,993.19
2016,03,13,09,07,993.16
2016,03,13,09,08,993.09
2016,03,13,09,09,993.06
2016,03,13,09,10,992.99
2016,03,13,09,11,992.96
2016,03,13,09,12,992.99
2016,03,13,09,13,992.89
2016,03,13,09,14,992.89
2016,03,13,09,15,992.86
2016,03,13,09,16,992.79
2016,03,13,09,17,992.79
2016,03,13,09,18,992.82
2016,03,13,09,19,992.72
2016,03,13,09,20,992.72
2016,03,13,09,21,992.69
2016,03,13,09,22,992.69
2016,03,13,09,23,992.72
2016,03,13,09,24,992.62
2016,03,13,09,25,992.62
2016,03,13,09,26,992.45
2016,03,13,09,27,992.45
2016,03,13,09,28,992.35
2016,03,13,09,29,992.42
2016,03,13,09,30,992.28
2016,03,13,09,31,992.18
2016,03,13,09,32,992.21
2016,03,13,09,33,992.08
2016,03,13,09,34,992.04
2016,03,13,09,35,992.01
2016,03,13,09,36,991.98
2016,03,13,09,37,991.94
2016,03,13,09,38,991.94
2016,03,13,09,39,991.87
2016,03,13,09,40,991.87
2016,03,13,09,41,991.81
2016,03,13,09,42,991.80
2016,03,13,09,43,991.70
2016,03,13,09,44,991.70
2016,03,13,09,45,991.60
2016,03,13,09,46,991.64
2016,03,13,09,47,991.64
2016,03,13,09,48,991.53
2016,03,13,09,49,991.57
2016,03,13,09,50,991.47
2016,03,13,09,51,991.43
2016,03,13,09,52,991.40
2016,03,13,09,53,991.40
2016,03,13,09,54,991.33
2016,03,13,09,55,991.26
2016,03,13,09,56,991.29
2016,03,13,09,57,991.13
2016,03,13,09,58,991.13
2016,03,13,09,59,991.06
2016,03,13,10,00,991.06
2016,03,13,10,01,991.15
2016,03,13,10,02,990.92
2016,03,13,10,03,990.82
2016,03,13,10,04,990.79
2016,03,13,10,05,990.76
2016,03,13,10,06,990.65
2016,03,13,10,07,990.65
2016,03,13,10,08,990.59
2016,03,13,10,09,990.52
2016,03,13,10,10,990.49
2016,03,13,10,11,990.45
2016,03,13,10,12,990.38
2016,03,13,10,13,990.45
2016,03,13,10,14,990.41
2016,03,13,10,15,990.32
2016,03,13,10,16,990.28
2016,03,13,10,17,990.21
2016,03,13,10,18,990.15
2016,03,13,10,19,990.21
2016,03,13,10,20,990.21
2016,03,13,10,21,990.11
2016,03,13,10,22,990.08
2016,03,13,10,23,990.11
2016,03,13,10,24,990.11
2016,03,13,10,25,990.15
2016,03,13,10,26,989.98
2016,03,13,10,27,990.01
2016,03,13,10,28,989.94
2016,03,13,10,29,989.94
2016,03,13,10,30,989.91
2016,03,13,10,31,989.88
2016,03,13,10,32,989.84
2016,03,13,10,33,989.78
2016,03,13,10,34,989.88
2016,03,13,10,35,989.84
2016,03,13,10,36,989.71
2016,03,13,10,37,989.74
2016,03,13,10,38,989.72
2016,03,13,10,39,989.81
2016,03,13,10,40,989.71
2016,03,13,10,41,989.77
2016,03,13,10,42,989.81
2016,03,13,10,43,989.71
2016,03,13,10,44,989.64
2016,03,13,10,45,989.71
2016,03,13,10,46,989.64
2016,03,13,10,47,989.57
2016,03,13,10,48,989.63
2016,03,13,10,49,989.50
2016,03,13,10,50,989.40
2016,03,13,10,51,989.44
2016,03,13,10,52,989.44
2016,03,13,10,53,989.44
2016,03,13,10,54,989.44
2016,03,13,10,55,989.44
2016,03,13,10,56,989.44
2016,03,13,10,57,989.44
2016,03,13,10,58,989.39
2016,03,13,10,59,989.27
2016,03,13,11,00,989.23
2016,03,13,11,01,989.23
2016,03,13,11,02,989.30
2016,03,13,11,03,989.27
2016,03,13,11,04,989.20
2016,03,13,11,05,989.13
2016,03,13,11,06,989.10
2016,03,13,11,07,989.10
2016,03,13,11,08,989.10
2016,03,13,11,09,989.06
2016,03,13,11,10,989.10
2016,03,13,11,11,989.03
2016,03,13,11,12,989.00
2016,03,13,11,13,989.06
2016,03,13,11,14,989.06
2016,03,13,11,15,989.10
2016,03,13,11,16,989.13
2016,03,13,11,17,989.10
2016,03,13,11,18,989.00
2016,03,13,11,19,989.03
2016,03,13,11,20,988.96
2016,03,13,11,21,988.96
2016,03,13,11,22,988.89
2016,03,13,11,23,988.93
2016,03,13,11,24,988.96
2016,03,13,11,25,988.96
2016,03,13,11,26,988.89
2016,03,13,11,27,988.96
2016,03,13,11,28,988.96
2016,03,13,11,29,988.89
2016,03,13,11,30,988.89
2016,03,13,11,31,988.89
2016,03,13,11,32,989.00
2016,03,13,11,33,989.03
2016,03,13,11,34,988.76
2016,03,13,11,35,988.83
2016,03,13,11,36,988.96
2016,03,13,11,37,988.93
2016,03,13,11,38,988.93
2016,03,13,11,39,988.86
2016,03,13,11,40,988.93
2016,03,13,11,41,988.82
2016,03,13,11,42,988.62
2016,03,13,11,43,988.62
2016,03,13,11,44,988.69
2016,03,13,11,45,988.69
2016,03,13,11,46,988.66
2016,03,13,11,47,988.72
2016,03,13,11,48,988.62
2016,03,13,11,49,988.79
2016,03,13,11,50,988.76
2016,03,13,11,51,988.66
2016,03,13,11,52,988.66
2016,03,13,11,53,988.69
2016,03,13,11,54,988.79
2016,03,13,11,55,988.72
2016,03,13,11,56,988.79
2016,03,13,11,57,988.76
2016,03,13,11,58,988.76
2016,03,13,11,59,988.69
2016,03,13,12,00,988.83
2016,03,13,12,01,988.66
2016,03,13,12,02,988.69
2016,03,13,12,03,988.76
2016,03,13,12,04,988.69
2016,03,13,12,05,988.45
2016,03,13,12,06,988.55
2016,03,13,12,07,988.55
2016,03,13,12,08,988.59
2016,03,13,12,09,988.59
2016,03,13,12,10,988.52
2016,03,13,12,11,988.45
2016,03,13,12,12,988.49
2016,03,13,12,13,988.45
2016,03,13,12,14,988.62
2016,03,13,12,15,988.42
2016,03,13,12,16,988.35
2016,03,13,12,17,988.39
2016,03,13,12,18,988.41
2016,03,13,12,19,988.32
2016,03,13,12,20,988.32
2016,03,13,12,21,988.32
2016,03,13,12,22,988.29
2016,03,13,12,23,988.39
2016,03,13,12,24,988.35
2016,03,13,12,25,988.25
2016,03,13,12,26,988.22
2016,03,13,12,27,988.11
2016,03,13,12,28,988.25
2016,03,13,12,29,988.15
2016,03,13,12,30,988.15
2016,03,13,12,31,988.11
2016,03,13,12,32,988.01
2016,03,13,12,33,987.98
2016,03,13,12,34,987.98
2016,03,13,12,35,988.01
2016,03,13,12,36,987.91
2016,03,13,12,37,987.88
2016,03,13,12,38,987.78
2016,03,13,12,39,987.84
2016,03,13,12,40,987.81
2016,03,13,12,41,987.67
2016,03,13,12,42,987.67
2016,03,13,12,43,987.61
2016,03,13,12,44,987.61
2016,03,13,12,45,987.57
2016,03,13,12,46,987.54
2016,03,13,12,47,987.47
2016,03,13,12,48,987.44
2016,03,13,12,49,987.47
2016,03,13,12,50,987.47
2016,03,13,12,51,987.30
2016,03,13,12,52,987.33
2016,03,13,12,53,987.23
2016,03,13,12,54,987.13
2016,03,13,12,55,987.13
2016,03,13,12,56,987.06
2016,03,13,12,57,987.10
2016,03,13,12,58,987.03
2016,03,13,12,59,987.02
2016,03,13,13,00,986.90
2016,03,13,13,01,986.95
2016,03,13,13,02,986.76
2016,03,13,13,03,986.69
2016,03,13,13,04,986.62
2016,03,13,13,05,986.56
2016,03,13,13,06,986.52
2016,03,13,13,07,986.42
2016,03,13,13,08,986.49
2016,03,13,13,09,986.39
2016,03,13,13,10,986.52
2016,03,13,13,11,986.59
2016,03,13,13,12,986.49
2016,03,13,13,13,986.46
2016,03,13,13,14,986.59
2016,03,13,13,15,986.56
2016,03,13,13,16,986.46
2016,03,13,13,17,986.52
2016,03,13,13,18,986.39
2016,03,13,13,19,986.45
2016,03,13,13,20,986.29
2016,03,13,13,21,986.25
2016,03,13,13,22,986.15
2016,03,13,13,23,986.12
2016,03,13,13,24,986.02
2016,03,13,13,25,985.98
2016,03,13,13,26,986.02
2016,03,13,13,27,985.85
2016,03,13,13,28,985.85
2016,03,13,13,29,985.90
2016,03,13,13,30,985.74
2016,03,13,13,31,985.61
2016,03,13,13,32,985.54
2016,03,13,13,33,985.54
2016,03,13,13,34,985.61
2016,03,13,13,35,985.61
2016,03,13,13,36,985.51
2016,03,13,13,37,985.44
2016,03,13,13,38,985.41
2016,03,13,13,39,985.47
2016,03,13,13,40,985.41
2016,03,13,13,41,985.40
2016,03,13,13,42,985.27
2016,03,13,13,43,985.27
2016,03,13,13,44,985.27
2016,03,13,13,45,985.13
2016,03,13,13,46,985.03
2016,03,13,13,47,985.00
2016,03,13,13,48,985.00
2016,03,13,13,49,984.93
2016,03,13,13,50,984.93
2016,03,13,13,51,984.93
2016,03,13,13,52,984.76
2016,03,13,13,53,984.73
2016,03,13,13,54,984.76
2016,03,13,13,55,984.66
2016,03,13,13,56,984.66
2016,03,13,13,57,984.66
2016,03,13,13,58,984.69
2016,03,13,13,59,984.53
2016,03,13,14,00,984.49
2016,03,13,14,01,984.36
2016,03,13,14,02,984.36
2016,03,13,14,03,984.36
2016,03,13,14,04,984.32
2016,03,13,14,05,984.25
2016,03,13,14,06,984.22
2016,03,13,14,07,984.22
2016,03,13,14,08,984.19
2016,03,13,14,09,984.12
2016,03,13,14,10,984.22
2016,03,13,14,11,984.08
2016,03,13,14,12,983.95
2016,03,13,14,13,983.92
2016,03,13,14,14,984.02
2016,03,13,14,15,983.95
2016,03,13,14,16,983.95
2016,03,13,14,17,983.81
2016,03,13,14,18,983.87
2016,03,13,14,19,983.75
2016,03,13,14,20,983.81
2016,03,13,14,21,983.85
2016,03,13,14,22,983.81
2016,03,13,14,23,983.61
2016,03,13,14,24,983.58
2016,03,13,14,25,983.64
2016,03,13,14,26,983.61
2016,03,13,14,27,983.51
2016,03,13,14,28,983.44
2016,03,13,14,29,983.27
2016,03,13,14,30,983.47
2016,03,13,14,31,983.27
2016,03,13,14,32,983.24
2016,03,13,14,33,983.20
2016,03,13,14,34,983.14
2016,03,13,14,35,983.16
2016,03,13,14,36,983.07
2016,03,13,14,37,983.10
2016,03,13,14,38,982.90
2016,03,13,14,39,982.87
2016,03,13,14,40,982.86
2016,03,13,14,41,982.76
2016,03,13,14,42,982.59
2016,03,13,14,43,982.63
2016,03,13,14,44,982.56
2016,03,13,14,45,982.47
2016,03,13,14,46,982.39
2016,03,13,14,47,982.36
2016,03,13,14,48,982.39
2016,03,13,14,49,982.32
2016,03,13,14,50,982.43
2016,03,13,14,51,982.26
2016,03,13,14,52,982.22
2016,03,13,14,53,982.26
2016,03,13,14,54,982.22
2016,03,13,14,55,982.15
2016,03,13,14,56,982.12
2016,03,13,14,57,982.17
2016,03,13,14,58,982.46
2016,03,13,14,59,982.16
2016,03,13,15,00,982.19
2016,03,13,15,01,982.09
2016,03,13,15,02,982.09
2016,03,13,15,03,982.09
2016,03,13,15,04,982.09
2016,03,13,15,05,982.05
2016,03,13,15,06,982.02
2016,03,13,15,07,981.99
2016,03,13,15,08,981.95
2016,03,13,15,09,981.82
2016,03,13,15,10,981.88
2016,03,13,15,11,981.92
2016,03,13,15,12,981.79
2016,03,13,15,13,981.82
2016,03,13,15,14,981.82
2016,03,13,15,15,981.78
2016,03,13,15,16,981.68
2016,03,13,15,17,981.71
2016,03,13,15,18,981.71
2016,03,13,15,19,981.61
2016,03,13,15,20,981.68
2016,03,13,15,21,981.61
2016,03,13,15,22,981.65
2016,03,13,15,23,981.68
2016,03,13,15,24,981.61
2016,03,13,15,25,981.68
2016,03,13,15,26,981.68
2016,03,13,15,27,981.65
2016,03,13,15,28,981.58
2016,03,13,15,29,981.55
2016,03,13,15,30,981.55
2016,03,13,15,31,981.51
2016,03,13,15,32,981.44
2016,03,13,15,33,981.44
2016,03,13,15,34,981.44
2016,03,13,15,35,981.51
2016,03,13,15,36,981.48
2016,03,13,15,37,981.44
2016,03,13,15,38,981.44
2016,03,13,15,39,981.41
2016,03,13,15,40,981.48
2016,03,13,15,41,981.44
2016,03,13,15,42,981.55
2016,03,13,15,43,981.55
2016,03,13,15,44,981.55
2016,03,13,15,45,981.55
2016,03,13,15,46,981.44
2016,03,13,15,47,981.48
2016,03,13,15,48,981.41
2016,03,13,15,49,981.41
2016,03,13,15,50,981.38
2016,03,13,15,51,981.38
2016,03,13,15,52,981.41
2016,03,13,15,53,981.41
2016,03,13,15,54,981.38
2016,03,13,15,55,981.38
2016,03,13,15,56,981.38
2016,03,13,15,57,981.34
2016,03,13,15,58,981.48
2016,03,13,15,59,981.38
2016,03,13,16,00,981.61
2016,03,13,16,01,981.44
2016,03,13,16,02,981.58
2016,03,13,16,03,981.51
2016,03,13,16,04,981.51
2016,03,13,16,05,981.55
2016,03,13,16,06,981.58
2016,03,13,16,07,981.58
2016,03,13,16,08,981.61
2016,03,13,16,09,981.65
2016,03,13,16,10,981.68
2016,03,13,16,11,981.68
2016,03,13,16,12,981.71
2016,03,13,16,13,981.68
2016,03,13,16,14,981.68
2016,03,13,16,15,981.68
2016,03,13,16,16,981.71
2016,03,13,16,17,981.78
2016,03,13,16,18,981.88
2016,03,13,16,19,981.88
2016,03,13,16,20,981.88
2016,03,13,16,21,981.88
2016,03,13,16,22,981.95
2016,03,13,16,23,981.95
2016,03,13,16,24,982.02
2016,03,13,16,25,982.02
2016,03,13,16,26,982.02
2016,03,13,16,27,981.99
2016,03,13,16,28,982.02
2016,03,13,16,29,982.02
2016,03,13,16,30,982.02
2016,03,13,16,31,982.09
2016,03,13,16,32,982.15
2016,03,13,16,33,982.19
2016,03,13,16,34,982.32
2016,03,13,16,35,982.29
2016,03,13,16,36,982.36
2016,03,13,16,37,982.43
2016,03,13,16,38,982.39
2016,03,13,16,39,982.43
2016,03,13,16,40,982.56
2016,03,13,16,41,982.43
2016,03,13,16,42,982.49
2016,03,13,16,43,982.59
2016,03,13,16,44,982.49
2016,03,13,16,45,982.56
2016,03,13,16,46,982.56
2016,03,13,16,47,982.46
2016,03,13,16,48,982.46
2016,03,13,16,49,982.46
2016,03,13,16,50,982.46
2016,03,13,16,51,982.36
2016,03,13,16,52,982.36
2016,03,13,16,53,982.22
2016,03,13,16,54,982.15
2016,03,13,16,55,982.02
2016,03,13,16,56,981.95
2016,03,13,16,57,981.85
2016,03,13,16,58,981.82
2016,03,13,16,59,981.88
2016,03,13,17,00,981.95
2016,03,13,17,01,982.02
2016,03,13,17,02,981.99
2016,03,13,17,03,981.88
2016,03,13,17,04,982.09
2016,03,13,17,05,982.05
2016,03,13,17,06,982.19
2016,03,13,17,07,982.16
2016,03,13,17,08,982.29
2016,03,13,17,09,982.26
2016,03,13,17,10,982.61
2016,03,13,17,11,982.46
2016,03,13,17,12,982.63
2016,03,13,17,13,982.80
2016,03,13,17,14,982.80
2016,03,13,17,15,983.07
2016,03,13,17,16,983.04
2016,03,13,17,17,983.10
2016,03,13,17,18,983.15
2016,03,13,17,19,983.34
2016,03,13,17,20,983.37
2016,03,13,17,21,983.50
2016,03,13,17,22,983.44
2016,03,13,17,23,983.54
2016,03,13,17,24,983.64
2016,03,13,17,25,983.71
2016,03,13,17,26,983.75
2016,03,13,17,27,983.81
2016,03,13,17,28,983.95
2016,03,13,17,29,984.05